SCP
0 0 0 0 0 0 -0 -0 -0 -0 -0 -0 -0 -0 -0 -0 -0 -0 -0 -0 -0 -0 0 0 0 0 0 0 0 0 0 0
0 0 0 0 0 0 0 -0 -0 -0 -0 -0 -0 -0 -0 -0 -0 -0 -0 -0 -0 -0 0 0 0 0 0 0 0 0 0 0
0 0 0 0 0 0 0 -0 -0 0 0 0 0 0 0 -0 -0 -0 -0 -0 -0 0 0 0 0 0 0 0 0 0 0 0
0 0 0 0 0 0 0 0 0 0 0 0 0 0 0 0 0 0 0 0 0 0 0 0 0 0 0 0 0 0 0 0
0 0 0 0 0 0 0 0 0 0 0 0 0 0 0 0 0 0 0 0 0 0 0 0 0 0 0 0 0 0 0 0
0 0 0 0 0 0 0 0 0 0 0 0 0 0 0 0 0 0 0 0 0 0 0 0 0 0 0 0 0 0 0 0
0 0 0 0 0 0 0 0 0 0 0 0 0 0 0 0 0 0 0 0 0 0 0 0 0 0 0 0 0 0 0 0
0 0 0 0 0 0 0 0 0 0 0 0 0 0 0 0 0 0 0 0 0 0 0 0 0 0 0 0 0 0 0 0
0 0 0 0 0 0 0 0 0 0 0 0 0 0 0 0 0 0 0 0 0 0 0 0 0 0 0 0 0 0 0 0
0 0 0 0 0 0 0 0 0 0 0 0 0 0 0 0 0 0 0 0 0 0 0 0 0 0 0 0 0 0 0 0
0 0 0 0 0 0 0 0 0 0 0 0 0 0 0 0 0 0 0 0 0 0 0 0 0 0 0 0 0 0 0 0
0 0 0 0 0 0 0 0 0 0 0 0 0 0 0 0 0 0 0 0 0 0 0 0 0 0 0 0 0 0 0 0
0 0 0 0 0 0 0 0 0 0 0 0 0 0 0 0 0 0 0 0 0 0 0 0 0 0 0 0 0 0 0 0
0 0 0 0 0 0 0 0 0 0 0 0 0 0 0 0 0 0 0 0 0 0 0 0 0 0 0 0 0 0 0 0
0 0 0 0 0 0 0 0 0 0 0 0 0 0 0 0 0 0 0 0 0 0 0 0 0 0 0 0 0 0 0 0
0 0 0 0 0 0 0 0 0 0 0 0 0 0 0 0 0 0 0 0 0 0 0 0 0 0 0 0 0 0 0 0
0 0 0 0 0 0 0 0 0 0 0 0 0 0 0 0 0 0 0 0 0 0 0 0 0 0 0 0 0 0 0 0
0 0 0 0 0 0 0 0 0 0 0 0 0 0 0 0 0 0 0 0 0 0 0 0 0 0 0 0 0 0 0 0
0 0 0 0 0 0 0 0 0 0 0 0 0 0 0 0 0 0 0 0 0 0 0 0 0 0 0 0 0 0 0 0
0 0 0 0 0 0 0 0 0 0 0 0 0 0 0 0 0 0 0 0 0 0 0 0 0 0 0 0 0 0 0 0
Wind_Speed_500mb
45 41 35 29 26 23 21 19 16 13 12 12 9 6 4 4 4 6 8 10 12 14 15 16 17 18 19 20 20 20 21 23
43 40 36 33 29 26 22 20 17 16 15 12 10 8 7 5 5 7 10 12 14 15 16 18 19 20 21 22 22 21 20 20
45 42 39 35 31 29 25 23 21 19 17 14 14 10 5 1 4 8 10 11 12 13 15 17 19 20 21 22 23 23 23 22
48 44 41 37 35 32 30 27 25 22 20 18 13 9 4 3 6 8 10 12 13 14 15 17 17 18 19 19 21 21 21 20
52 47 43 39 36 35 32 29 28 28 23 18 12 7 2 3 5 7 8 10 12 14 15 17 18 19 19 19 19 19 18 16
55 52 46 42 38 36 34 34 34 29 24 18 11 6 3 2 1 3 6 9 13 15 17 20 20 20 20 20 18 17 15 13
60 56 50 45 42 39 39 41 36 30 24 18 11 6 5 3 1 4 8 12 14 16 18 19 20 21 21 20 19 16 14 13
66 60 53 47 44 42 43 42 38 32 24 18 13 9 6 1 3 6 9 11 15 17 18 20 21 21 19 18 17 15 14 13
67 62 56 51 47 46 46 42 37 31 25 20 15 11 6 2 3 5 7 11 15 17 18 18 19 18 18 18 15 12 12 12
65 65 60 57 52 50 49 43 38 33 28 23 18 12 8 4 1 5 9 13 14 15 16 17 18 18 17 14 11 9 9 10
71 69 64 62 57 53 50 46 41 35 30 25 19 15 10 5 1 5 10 13 14 15 16 18 19 19 17 13 10 7 7 11
74 73 70 66 61 58 55 50 44 39 33 27 22 18 12 7 2 4 7 9 11 14 16 17 18 17 15 11 7 5 6 18
83 80 76 74 72 69 62 57 51 44 37 31 25 19 14 9 5 3 4 6 10 12 14 15 15 14 12 6 3 5 7 19
87 82 80 80 75 71 67 60 53 45 40 35 29 23 17 12 7 3 1 5 10 12 14 15 14 14 11 4 2 1 8 8
92 88 85 81 78 72 68 62 56 54 47 41 35 28 21 15 10 6 2 3 7 10 13 17 16 15 14 8 3 3 14 10
95 92 89 85 82 82 79 76 70 61 52 45 38 32 25 18 12 8 5 4 7 10 15 17 14 14 13 13 9 5 5 3
102 95 91 91 88 86 81 76 69 59 54 49 43 35 29 22 16 11 7 7 7 9 12 11 11 13 15 15 14 11 10 4
105 100 98 95 93 90 86 80 73 66 62 57 49 42 34 27 21 15 12 8 6 9 10 9 10 11 12 12 11 8 9 10
111 106 103 99 95 92 89 81 74 68 65 61 55 49 41 32 25 18 14 9 9 8 6 7 8 10 11 12 12 12 13 14
114 113 110 105 100 95 91 83 78 71 66 61 56 48 41 36 28 22 16 13 9 5 4 5 8 9 11 12 12 13 14 15
Wind_Direction_500mb
186 189 190 187 189 194 194 194 190 178 170 160 154 154 151 108 62 37 22 14 2 358 354 351 349 345 343 340 338 336 332 329
192 193 192 190 189 190 190 190 183 177 173 165 156 146 123 84 36 5 355 354 352 347 343 341 341 340 338 336 336 336 333 330
195 197 194 191 188 191 189 188 185 182 177 166 151 144 134 54 342 334 333 336 340 343 342 339 338 336 334 329 327 326 330 334
194 197 196 193 191 189 191 193 188 183 171 163 165 166 174 306 333 336 344 349 352 350 347 344 341 338 339 335 333 334 332 332
192 196 195 196 195 190 191 193 188 178 175 175 176 188 211 307 336 348 357 357 357 354 349 347 350 351 348 345 344 340 340 338
196 196 198 197 195 193 190 187 182 182 182 182 185 212 242 261 308 2 8 3 5 360 357 356 356 358 358 355 351 344 341 336
199 200 202 201 195 194 188 182 184 188 189 189 192 206 214 211 281 10 9 9 4 5 6 5 6 4 0 354 349 345 341 339
203 203 204 202 198 195 192 188 188 191 191 192 191 195 204 236 0 15 14 13 16 16 12 9 7 5 359 355 350 346 339 333
203 204 204 203 202 197 196 194 191 192 193 193 192 193 193 223 333 356 9 24 25 21 14 10 6 3 359 358 354 343 335 333
207 207 206 204 204 203 199 197 195 194 193 194 191 188 186 201 258 21 34 38 36 32 26 17 10 9 7 3 358 352 345 336
211 209 208 206 204 203 200 200 197 195 194 192 187 187 190 193 83 35 38 35 31 30 30 24 18 11 8 12 7 17 21 20
214 210 208 207 205 203 201 200 198 196 193 191 192 191 191 182 121 50 40 33 31 34 30 23 17 18 18 12 19 38 52 355
213 210 208 208 205 202 200 200 198 196 195 193 191 189 183 172 154 89 47 30 28 30 30 31 26 28 25 17 26 7 11 349
212 211 212 210 211 209 208 202 199 201 196 193 190 190 187 181 179 172 1 16 16 14 19 20 20 31 31 74 155 222 314 298
212 213 213 213 212 210 206 204 201 198 196 197 194 191 191 191 193 204 251 348 354 356 8 14 15 28 35 58 86 181 327 327
214 214 213 215 214 212 213 210 206 205 203 199 196 194 194 195 200 214 239 301 327 349 359 2 7 22 27 27 33 37 98 348
214 213 213 215 213 215 213 212 212 210 203 201 199 197 198 199 204 217 240 274 307 338 348 344 0 15 23 24 15 13 7 25
216 213 214 215 214 214 215 214 212 207 205 203 201 201 201 201 208 215 232 252 292 314 325 344 1 10 14 15 12 14 1 6
216 213 214 214 214 215 215 215 216 215 213 209 206 204 202 204 207 212 225 245 264 292 314 348 351 358 7 12 9 359 353 349
218 214 214 214 213 215 216 215 215 216 216 214 210 208 206 206 207 211 221 233 245 257 288 316 330 350 360 2 359 357 355 353
Wind_Speed_850mb
45 41 35 29 26 23 21 19 16 13 12 12 9 6 4 4 4 6 8 10 12 14 15 16 17 18 19 20 20 20 21 23
43 40 36 33 29 26 22 20 17 16 15 12 10 8 7 5 5 7 10 12 14 15 16 18 19 20 21 22 22 21 20 20
45 42 39 35 31 29 25 23 21 19 17 14 14 10 5 1 4 8 10 11 12 13 15 17 19 20 21 22 23 23 23 22
48 44 41 37 35 32 30 27 25 22 20 18 13 9 4 3 6 8 10 12 13 14 15 17 17 18 19 19 21 21 21 20
52 47 43 39 36 35 32 29 28 28 23 18 12 7 2 3 5 7 8 10 12 14 15 17 18 19 19 19 19 19 18 16
55 52 46 42 38 36 34 34 34 29 24 18 11 6 3 2 1 3 6 9 13 15 17 20 20 20 20 20 18 17 15 13
60 56 50 45 42 39 39 41 36 30 24 18 11 6 5 3 1 4 8 12 14 16 18 19 20 21 21 20 19 16 14 13
66 60 53 47 44 42 43 42 38 32 24 18 13 9 6 1 3 6 9 11 15 17 18 20 21 21 19 18 17 15 14 13
67 62 56 51 47 46 46 42 37 31 25 20 15 11 6 2 3 5 7 11 15 17 18 18 19 18 18 18 15 12 12 12
65 65 60 57 52 50 49 43 38 33 28 23 18 12 8 4 1 5 9 13 14 15 16 17 18 18 17 14 11 9 9 10
71 69 64 62 57 53 50 46 41 35 30 25 19 15 10 5 1 5 10 13 14 15 16 18 19 19 17 13 10 7 7 11
74 73 70 66 61 58 55 50 44 39 33 27 22 18 12 7 2 4 7 9 11 14 16 17 18 17 15 11 7 5 6 18
83 80 76 74 72 69 62 57 51 44 37 31 25 19 14 9 5 3 4 6 10 12 14 15 15 14 12 6 3 5 7 19
87 82 80 80 75 71 67 60 53 45 40 35 29 23 17 12 7 3 1 5 10 12 14 15 14 14 11 4 2 1 8 8
92 88 85 81 78 72 68 62 56 54 47 41 35 28 21 15 10 6 2 3 7 10 13 17 16 15 14 8 3 3 14 10
95 92 89 85 82 82 79 76 70 61 52 45 38 32 25 18 12 8 5 4 7 10 15 17 14 14 13 13 9 5 5 3
102 95 91 91 88 86 81 76 69 59 54 49 43 35 29 22 16 11 7 7 7 9 12 11 11 13 15 15 14 11 10 4
105 100 98 95 93 90 86 80 73 66 62 57 49 42 34 27 21 15 12 8 6 9 10 9 10 11 12 12 11 8 9 10
111 106 103 99 95 92 89 81 74 68 65 61 55 49 41 32 25 18 14 9 9 8 6 7 8 10 11 12 12 12 13 14
114 113 110 105 100 95 91 83 78 71 66 61 56 48 41 36 28 22 16 13 9 5 4 5 8 9 11 12 12 13 14 15
Wind_Direction_850mb
186 189 190 187 189 194 194 194 190 178 170 160 154 154 151 108 62 37 22 14 2 358 354 351 349 345 343 340 338 336 332 329
192 193 192 190 189 190 190 190 183 177 173 165 156 146 123 84 36 5 355 354 352 347 343 341 341 340 338 336 336 336 333 330
195 197 194 191 188 191 189 188 185 182 177 166 151 144 134 54 342 334 333 336 340 343 342 339 338 336 334 329 327 326 330 334
194 197 196 193 191 189 191 193 188 183 171 163 165 166 174 306 333 336 344 349 352 350 347 344 341 338 339 335 333 334 332 332
192 196 195 196 195 190 191 193 188 178 175 175 176 188 211 307 336 348 357 357 357 354 349 347 350 351 348 345 344 340 340 338
196 196 198 197 195 193 190 187 182 182 182 182 185 212 242 261 308 2 8 3 5 360 357 356 356 358 358 355 351 344 341 336
199 200 202 201 195 194 188 182 184 188 189 189 192 206 214 211 281 10 9 9 4 5 6 5 6 4 0 354 349 345 341 339
203 203 204 202 198 195 192 188 188 191 191 192 191 195 204 236 0 15 14 13 16 16 12 9 7 5 359 355 350 346 339 333
203 204 204 203 202 197 196 194 191 192 193 193 192 193 193 223 333 356 9 24 25 21 14 10 6 3 359 358 354 343 335 333
207 207 206 204 204 203 199 197 195 194 193 194 191 188 186 201 258 21 34 38 36 32 26 17 10 9 7 3 358 352 345 336
211 209 208 206 204 203 200 200 197 195 194 192 187 187 190 193 83 35 38 35 31 30 30 24 18 11 8 12 7 17 21 20
214 210 208 207 205 203 201 200 198 196 193 191 192 191 191 182 121 50 40 33 31 34 30 23 17 18 18 12 19 38 52 355
213 210 208 208 205 202 200 200 198 196 195 193 191 189 183 172 154 89 47 30 28 30 30 31 26 28 25 17 26 7 11 349
212 211 212 210 211 209 208 202 199 201 196 193 190 190 187 181 179 172 1 16 16 14 19 20 20 31 31 74 155 222 314 298
212 213 213 213 212 210 206 204 201 198 196 197 194 191 191 191 193 204 251 348 354 356 8 14 15 28 35 58 86 181 327 327
214 214 213 215 214 212 213 210 206 205 203 199 196 194 194 195 200 214 239 301 327 349 359 2 7 22 27 27 33 37 98 348
214 213 213 215 213 215 213 212 212 210 203 201 199 197 198 199 204 217 240 274 307 338 348 344 0 15 23 24 15 13 7 25
216 213 214 215 214 214 215 214 212 207 205 203 201 201 201 201 208 215 232 252 292 314 325 344 1 10 14 15 12 14 1 6
216 213 214 214 214 215 215 215 216 215 213 209 206 204 202 204 207 212 225 245 264 292 314 348 351 358 7 12 9 359 353 349
218 214 214 214 213 215 216 215 215 216 216 214 210 208 206 206 207 211 221 233 245 257 288 316 330 350 360 2 359 357 355 353